Time,TemperatureF,DewpointF,PressureIn,WindDirection,WindDirectionDegrees,WindSpeedMPH,WindSpeedGustMPH,Humidity,HourlyPrecipIn,Conditions,Clouds,dailyrainin,SolarRadiationWatts/m^2,SoftwareType,DateUTC
2013-01-30 16:35:00,49.1,43.5,29.56,North,0,8.1,0.0,81,0.00,OVC,OVC,0.00,0.0,WeatherDisplay:10.37,2013-01-31 00:35:00,
2013-01-30 16:36:00,48.9,43.3,29.56,North,0,8.1,0.0,81,0.00,OVC,OVC,0.00,0.0,WeatherDisplay:10.37,2013-01-31 00:36:00,
2013-01-30 16:37:00,48.9,43.3,29.56,North,0,8.1,0.0,81,0.00,OVC,OVC,0.00,0.0,WeatherDisplay:10.37,2013-01-31 00:37:00,
2013-01-30 16:39:00,48.7,42.8,29.56,North,0,8.1,0.0,80,0.00,OVC,OVC,0.00,0.0,WeatherDisplay:10.37,2013-01-31 00:39:00,
2013-01-30 16:45:00,48.6,42.7,29.56,SSW,196,8.1,0.0,80,0.00,CLR,CLR,0.00,0.0,WeatherDisplay:10.37,2013-01-31 00:45:00,
2013-01-30 16:50:00,48.6,42.7,29.56,SE,145,8.1,0.0,80,0.00,CLR,CLR,0.00,0.0,WeatherDisplay:10.37,2013-01-31 00:50:00,
2013-01-30 16:55:00,48.4,42.8,29.56,SSE,161,8.1,0.0,81,0.00,CLR,CLR,0.00,0.0,WeatherDisplay:10.37,2013-01-31 00:55:00,
2013-01-30 17:00:00,48.4,42.8,29.56,SSE,161,8.1,0.0,81,0.00,CLR,CLR,0.00,0.0,WeatherDisplay:10.37,2013-01-31 01:00:00,
2013-01-30 17:05:00,48.4,42.8,29.56,SSE,161,8.1,0.0,81,0.00,CLR,CLR,0.00,0.0,WeatherDisplay:10.37,2013-01-31 01:05:00,
2013-01-30 17:10:00,48.4,42.8,29.56,SSE,161,8.1,0.0,81,0.00,CLR,CLR,0.00,0.0,WeatherDisplay:10.37,2013-01-31 01:10:00,
2013-01-30 17:15:00,48.4,42.8,29.56,SSE,162,8.1,0.0,81,0.00,CLR,CLR,0.00,0.0,WeatherDisplay:10.37,2013-01-31 01:15:00,
2013-01-30 17:20:00,48.4,42.8,29.56,SSE,161,8.1,0.0,81,0.00,CLR,CLR,0.00,0.0,WeatherDisplay:10.37,2013-01-31 01:20:00,
2013-01-30 17:25:00,48.4,42.8,29.56,SSE,161,8.1,0.0,81,0.00,CLR,CLR,0.00,0.0,WeatherDisplay:10.37,2013-01-31 01:25:00,
2013-01-30 17:30:00,48.4,42.8,29.56,SSE,161,8.1,0.0,81,0.00,CLR,CLR,0.00,0.0,WeatherDisplay:10.37,2013-01-31 01:30:00,
2013-01-30 17:35:00,48.2,42.6,29.56,SW,217,8.1,0.0,81,0.00,CLR,CLR,0.00,0.0,WeatherDisplay:10.37,2013-01-31 01:35:00,
2013-01-30 17:40:00,48.2,42.6,29.56,SW,217,8.1,0.0,81,0.00,CLR,CLR,0.00,0.0,WeatherDisplay:10.37,2013-01-31 01:40:00,
2013-01-30 17:46:00,48.2,42.6,29.56,SW,217,8.1,0.0,81,0.00,CLR,CLR,0.00,0.0,WeatherDisplay:10.37,2013-01-31 01:46:00,
2013-01-30 17:51:00,48.2,42.6,29.56,SW,217,8.1,0.0,81,0.00,CLR,CLR,0.00,0.0,WeatherDisplay:10.37,2013-01-31 01:51:00,
2013-01-30 17:56:00,48.2,42.6,29.56,SE,144,8.1,8.1,81,0.00,CLR,CLR,0.00,0.0,WeatherDisplay:10.37,2013-01-31 01:56:00,
2013-01-30 18:01:00,48.2,42.6,29.56,SSW,196,8.1,0.0,81,0.00,CLR,CLR,0.00,0.0,WeatherDisplay:10.37,2013-01-31 02:01:00,
2013-01-30 18:06:00,48.2,42.6,29.56,SSW,196,8.1,0.0,81,0.00,CLR,CLR,0.00,0.0,WeatherDisplay:10.37,2013-01-31 02:06:00,
2013-01-30 18:11:00,48.0,42.5,29.56,SSW,196,8.1,0.0,81,0.00,CLR,CLR,0.00,0.0,WeatherDisplay:10.37,2013-01-31 02:11:00,
2013-01-30 18:16:00,48.0,42.5,29.56,SSW,196,8.1,0.0,81,0.00,CLR,CLR,0.00,0.0,WeatherDisplay:10.37,2013-01-31 02:16:00,
2013-01-30 18:21:00,48.0,42.5,29.56,SSW,196,8.1,0.0,81,0.00,CLR,CLR,0.00,0.0,WeatherDisplay:10.37,2013-01-31 02:21:00,
2013-01-30 18:26:00,48.0,42.5,29.56,SSW,196,8.1,0.0,81,0.00,CLR,CLR,0.00,0.0,WeatherDisplay:10.37,2013-01-31 02:26:00,
2013-01-30 18:32:00,48.0,42.5,29.56,SW,223,8.1,0.0,81,0.00,CLR,CLR,0.00,0.0,WeatherDisplay:10.37,2013-01-31 02:32:00,
2013-01-30 18:36:00,48.0,42.5,29.56,South,175,8.1,0.0,81,0.00,CLR,CLR,0.04,0.0,WeatherDisplay:10.37,2013-01-31 02:36:00,
2013-01-30 18:42:00,47.8,42.6,29.56,SSW,203,8.1,0.0,82,0.00,CLR,CLR,0.04,0.0,WeatherDisplay:10.37,2013-01-31 02:42:00,
2013-01-30 18:47:00,47.8,42.6,29.56,SSW,203,8.1,0.0,82,0.00,CLR,CLR,0.04,0.0,WeatherDisplay:10.37,2013-01-31 02:47:00,
2013-01-30 18:52:00,47.8,42.6,29.56,SSW,202,8.1,0.0,82,0.00,CLR,CLR,0.04,0.0,WeatherDisplay:10.37,2013-01-31 02:52:00,
2013-01-30 18:57:00,47.8,42.6,29.56,SSW,202,8.1,0.0,82,0.00,CLR,CLR,0.04,0.0,WeatherDisplay:10.37,2013-01-31 02:57:00,
2013-01-30 19:03:00,47.8,42.6,29.56,SSW,203,8.1,0.0,82,0.00,CLR,CLR,0.04,0.0,WeatherDisplay:10.37,2013-01-31 03:03:00,
2013-01-30 19:08:00,47.8,42.6,29.56,SSW,202,8.1,0.0,82,0.00,CLR,CLR,0.04,0.0,WeatherDisplay:10.37,2013-01-31 03:08:00,
2013-01-30 19:13:00,47.8,42.6,29.56,SSW,202,8.1,0.0,82,0.00,CLR,CLR,0.04,0.0,WeatherDisplay:10.37,2013-01-31 03:13:00,
2013-01-30 19:18:00,47.8,42.6,29.56,SSW,203,8.1,0.0,82,0.00,CLR,CLR,0.04,0.0,WeatherDisplay:10.37,2013-01-31 03:18:00,
2013-01-30 19:23:00,47.8,42.6,29.56,SSW,203,8.1,0.0,82,0.00,CLR,CLR,0.04,0.0,WeatherDisplay:10.37,2013-01-31 03:23:00,
2013-01-30 19:28:00,47.8,42.6,29.56,SSW,203,8.1,0.0,82,0.00,CLR,CLR,0.04,0.0,WeatherDisplay:10.37,2013-01-31 03:28:00,
2013-01-30 19:33:00,47.8,42.6,29.56,SSW,202,8.1,0.0,82,0.00,CLR,CLR,0.04,0.0,WeatherDisplay:10.37,2013-01-31 03:33:00,
2013-01-30 19:38:00,47.8,42.6,29.56,SSW,203,8.1,0.0,82,0.00,CLR,CLR,0.04,0.0,WeatherDisplay:10.37,2013-01-31 03:38:00,
2013-01-30 19:43:00,47.8,42.6,29.56,SSW,203,8.1,0.0,82,0.00,CLR,CLR,0.04,0.0,WeatherDisplay:10.37,2013-01-31 03:43:00,
2013-01-30 19:48:00,47.8,42.6,29.56,SSW,203,8.1,0.0,82,0.00,CLR,CLR,0.08,0.0,WeatherDisplay:10.37,2013-01-31 03:48:00,
2013-01-30 19:54:00,47.8,42.6,29.56,SSW,202,8.1,0.0,82,0.00,CLR,CLR,0.08,0.0,WeatherDisplay:10.37,2013-01-31 03:54:00,
2013-01-30 19:59:00,47.7,42.4,29.56,SSW,202,8.1,0.0,82,0.00,CLR,CLR,0.08,0.0,WeatherDisplay:10.37,2013-01-31 03:59:00,
2013-01-30 20:04:00,47.7,42.4,29.56,SSW,202,8.1,0.0,82,0.00,CLR,CLR,0.08,0.0,WeatherDisplay:10.37,2013-01-31 04:04:00,
2013-01-30 20:09:00,47.7,42.4,29.56,SSW,202,8.1,0.0,82,0.00,CLR,CLR,0.08,0.0,WeatherDisplay:10.37,2013-01-31 04:09:00,
2013-01-30 20:14:00,47.8,42.6,29.56,SSW,203,8.1,0.0,82,0.00,CLR,CLR,0.08,0.0,WeatherDisplay:10.37,2013-01-31 04:14:00,
2013-01-30 20:19:00,47.8,42.6,29.56,SSW,202,8.1,0.0,82,0.00,CLR,CLR,0.08,0.0,WeatherDisplay:10.37,2013-01-31 04:19:00,
2013-01-30 20:24:00,47.7,42.4,29.56,SSW,202,8.1,0.0,82,0.00,CLR,CLR,0.08,0.0,WeatherDisplay:10.37,2013-01-31 04:24:00,
2013-01-30 20:30:00,47.7,42.4,29.56,SSW,202,8.1,0.0,82,0.00,CLR,CLR,0.12,0.0,WeatherDisplay:10.37,2013-01-31 04:30:00,
2013-01-30 20:35:00,47.7,42.4,29.56,SSW,202,8.1,0.0,82,0.00,CLR,CLR,0.12,0.0,WeatherDisplay:10.37,2013-01-31 04:35:00,
2013-01-30 20:40:00,47.8,42.6,29.56,SSW,202,8.1,0.0,82,0.00,CLR,CLR,0.12,0.0,WeatherDisplay:10.37,2013-01-31 04:40:00,
2013-01-30 20:45:00,47.8,42.6,29.56,SSW,202,8.1,0.0,82,0.00,CLR,CLR,0.12,0.0,WeatherDisplay:10.37,2013-01-31 04:45:00,
2013-01-30 20:50:00,47.8,42.6,29.56,SSW,203,8.1,0.0,82,0.00,CLR,CLR,0.12,0.0,WeatherDisplay:10.37,2013-01-31 04:50:00,
2013-01-30 20:55:00,47.8,42.6,29.56,NNW,339,8.1,0.0,82,0.00,CLR,CLR,0.12,0.0,WeatherDisplay:10.37,2013-01-31 04:55:00,
2013-01-30 21:00:00,47.8,42.6,29.56,NNW,345,8.1,0.0,82,0.00,CLR,CLR,0.12,0.0,WeatherDisplay:10.37,2013-01-31 05:00:00,
2013-01-30 21:01:00,47.8,42.6,29.56,NNW,345,8.1,0.0,82,0.00,CLR,CLR,0.12,0.0,WeatherDisplay:10.37,2013-01-31 05:01:00,
2013-01-30 21:03:00,47.8,42.6,29.56,NNW,345,8.1,0.0,82,0.00,CLR,CLR,0.12,0.0,WeatherDisplay:10.37,2013-01-31 05:03:00,
2013-01-30 21:08:00,47.8,42.6,29.56,NNW,345,8.1,0.0,82,0.00,CLR,CLR,0.12,0.0,WeatherDisplay:10.37,2013-01-31 05:08:00,
2013-01-30 21:13:00,47.8,42.6,29.56,NNW,345,8.1,0.0,82,0.00,CLR,CLR,0.12,0.0,WeatherDisplay:10.37,2013-01-31 05:13:00,
2013-01-30 21:18:00,47.8,42.6,29.56,NNW,345,8.1,0.0,82,0.00,CLR,CLR,0.12,0.0,WeatherDisplay:10.37,2013-01-31 05:18:00,
2013-01-30 21:23:00,47.8,42.6,29.56,NNW,345,8.1,0.0,82,0.00,CLR,CLR,0.12,0.0,WeatherDisplay:10.37,2013-01-31 05:23:00,
2013-01-30 21:28:00,47.8,42.6,29.56,NNW,345,8.1,0.0,82,0.00,CLR,CLR,0.12,0.0,WeatherDisplay:10.37,2013-01-31 05:28:00,
2013-01-30 21:34:00,47.8,42.6,29.56,NNW,345,8.1,0.0,82,0.00,CLR,CLR,0.12,0.0,WeatherDisplay:10.37,2013-01-31 05:34:00,
2013-01-30 21:39:00,47.8,42.6,29.56,NNW,345,8.1,0.0,82,0.00,CLR,CLR,0.12,0.0,WeatherDisplay:10.37,2013-01-31 05:39:00,
2013-01-30 21:44:00,47.8,42.6,29.56,NNW,345,8.1,0.0,82,0.00,CLR,CLR,0.12,0.0,WeatherDisplay:10.37,2013-01-31 05:44:00,
2013-01-30 21:49:00,47.8,42.6,29.56,NNW,345,8.1,0.0,82,0.00,CLR,CLR,0.12,0.0,WeatherDisplay:10.37,2013-01-31 05:49:00,
2013-01-30 21:54:00,47.8,42.6,29.56,SSE,151,8.1,0.0,82,0.00,CLR,CLR,0.12,0.0,WeatherDisplay:10.37,2013-01-31 05:54:00,
2013-01-30 21:59:00,47.8,42.6,29.56,SSE,151,8.1,0.0,82,0.00,CLR,CLR,0.12,0.0,WeatherDisplay:10.37,2013-01-31 05:59:00,
2013-01-30 22:04:00,47.8,42.6,29.56,SSE,151,8.1,0.0,82,0.00,CLR,CLR,0.12,0.0,WeatherDisplay:10.37,2013-01-31 06:04:00,
2013-01-30 22:09:00,47.8,42.6,29.56,SSE,150,8.1,0.0,82,0.00,CLR,CLR,0.12,0.0,WeatherDisplay:10.37,2013-01-31 06:09:00,
2013-01-30 22:14:00,47.8,42.6,29.56,SSE,151,8.1,0.0,82,0.00,CLR,CLR,0.12,0.0,WeatherDisplay:10.37,2013-01-31 06:14:00,
2013-01-30 22:19:00,47.8,42.6,29.56,SSE,151,8.1,0.0,82,0.00,CLR,CLR,0.12,0.0,WeatherDisplay:10.37,2013-01-31 06:19:00,
2013-01-30 22:24:00,47.8,42.6,29.56,SSE,151,8.1,0.0,82,0.00,CLR,CLR,0.12,0.0,WeatherDisplay:10.37,2013-01-31 06:24:00,
2013-01-30 22:29:00,47.8,42.6,29.56,SSE,151,8.1,0.0,82,0.00,CLR,CLR,0.12,0.0,WeatherDisplay:10.37,2013-01-31 06:29:00,
2013-01-30 22:34:00,47.8,42.6,29.56,SSE,151,8.1,0.0,82,0.00,CLR,CLR,0.12,0.0,WeatherDisplay:10.37,2013-01-31 06:34:00,
2013-01-30 22:39:00,47.7,42.4,29.56,SSE,151,8.1,0.0,82,0.00,CLR,CLR,0.12,0.0,WeatherDisplay:10.37,2013-01-31 06:39:00,
2013-01-30 22:44:00,47.7,42.4,29.56,SSE,151,8.1,0.0,82,0.00,CLR,CLR,0.12,0.0,WeatherDisplay:10.37,2013-01-31 06:44:00,
2013-01-30 22:49:00,47.8,42.9,29.56,SSE,151,8.1,0.0,83,0.00,CLR,CLR,0.12,0.0,WeatherDisplay:10.37,2013-01-31 06:49:00,
2013-01-30 22:55:00,47.8,42.9,29.56,SSE,151,8.1,0.0,83,0.00,CLR,CLR,0.12,0.0,WeatherDisplay:10.37,2013-01-31 06:55:00,
2013-01-30 23:00:00,47.8,42.9,29.56,SSE,151,8.1,0.0,83,0.00,CLR,CLR,0.12,0.0,WeatherDisplay:10.37,2013-01-31 07:00:00,
2013-01-30 23:05:00,47.8,42.9,29.56,SSE,151,8.1,0.0,83,0.00,CLR,CLR,0.12,0.0,WeatherDisplay:10.37,2013-01-31 07:05:00,
2013-01-30 23:10:00,47.8,42.9,29.56,SSE,151,8.1,0.0,83,0.00,CLR,CLR,0.12,0.0,WeatherDisplay:10.37,2013-01-31 07:10:00,
2013-01-30 23:15:00,47.8,42.9,29.56,SSE,151,8.1,0.0,83,0.00,CLR,CLR,0.12,0.0,WeatherDisplay:10.37,2013-01-31 07:15:00,
2013-01-30 23:20:00,47.8,42.9,29.56,SSE,151,8.1,0.0,83,0.00,CLR,CLR,0.12,0.0,WeatherDisplay:10.37,2013-01-31 07:20:00,
2013-01-30 23:25:00,47.8,42.9,29.56,SSE,151,8.1,0.0,83,0.00,CLR,CLR,0.12,0.0,WeatherDisplay:10.37,2013-01-31 07:25:00,
2013-01-30 23:30:00,47.8,42.9,29.56,SSE,151,8.1,0.0,83,0.00,CLR,CLR,0.12,0.0,WeatherDisplay:10.37,2013-01-31 07:30:00,
2013-01-30 23:35:00,47.8,42.9,29.56,SSE,151,8.1,0.0,83,0.00,CLR,CLR,0.12,0.0,WeatherDisplay:10.37,2013-01-31 07:35:00,
2013-01-30 23:40:00,47.8,42.9,29.56,SSE,151,8.1,0.0,83,0.00,CLR,CLR,0.12,0.0,WeatherDisplay:10.37,2013-01-31 07:40:00,
2013-01-30 23:45:00,47.8,42.9,29.56,SSE,151,8.1,0.0,83,0.00,CLR,CLR,0.12,0.0,WeatherDisplay:10.37,2013-01-31 07:45:00,
2013-01-30 23:51:00,47.8,42.9,29.56,SSE,151,8.1,0.0,83,0.00,CLR,CLR,0.12,0.0,WeatherDisplay:10.37,2013-01-31 07:51:00,
2013-01-30 23:56:00,47.8,42.9,29.56,SSE,151,8.1,0.0,83,0.00,CLR,CLR,0.12,0.0,WeatherDisplay:10.37,2013-01-31 07:56:00,